Regional Weather Roundup
Issued by NWS

Home | Current Version | Previous Version | Text Only | Print | Product List | Glossary Off
Versions: 1 2 3 4 5 6 7 8 9 10 11 12 13 14 15 16 17 18 19 20 21 22 23 24 25 26 27 28 29 30 31 32 33 34 35 36 37 38 39 40 41 42 43 44 45 46 47 48 49 50

000
ASUS45 KSLC 031110
RWRUT

UTAH REGIONAL WEATHER ROUNDUP
NATIONAL WEATHER SERVICE SALT LAKE CITY UT
500 AM MDT WED JUN 03 2015

UTZ001>011-023>025-031200-

NORTHERN UTAH

CITY           SKY/WX    TMP DP  RH WIND       PRES   REMARKS
BRIGHAM CITY   PTCLDY    57  47  67 CALM      29.92S
HILL AFB       PTCLDY    57  42  57 E21       29.92S
LOGAN          CLEAR     52  46  80 CALM      29.96S
OGDEN          PTCLDY    54  48  80 SW3       29.90F
PROVO AIRPORT  CLEAR     54  39  58 SE7       29.92S
SALT LAKE CITY PTCLDY    59  52  77 SW5       29.90S
VERNAL         PTCLDY    56  37  49 NW6       29.96S
WENDOVER       CLEAR     63  43  48 NE3       29.92S
WEST JORDAN    CLEAR     57  48  72 NW5       29.93S

$$

UTZ012>022-026-027-031200-

SOUTHERN/CENTRAL UTAH

CITY           SKY/WX    TMP DP  RH WIND       PRES   REMARKS
BLANDING       PTCLDY    50  23  34 N3        30.09S
BRYCE CANYON   PTCLDY    35  24  64 W5        30.12S WCI  31
CEDAR CITY     CLEAR     49  26  41 CALM      29.96F
DELTA          CLEAR     57  20  23 S9        29.91S
HANKSVILLE     CLEAR     57  21  24 CALM      29.91R
MILFORD        CLEAR     47  26  44 S8        29.93S
MOAB/CYNLANDS  CLEAR     57  19  22 CALM      29.87R
PRICE          CLEAR     56  23  27 NE6       29.96S
ST GEORGE      MOSUNNY   66  18  15 SE6       29.85S
KANAB          CLEAR     43  30  61 NE5       30.01S

$$

REGIONAL REPORTS     COLORADO/ARIZONA

CITY           SKY/WX    TMP DP  RH WIND       PRES   REMARKS
CRAIG, CO      CLEAR     40  35  83 CALM      30.06R
GRAND JUNCTION CLEAR     53  29  39 E7        29.92R
RIFLE          CLEAR     44  34  67 S5        30.00R
MONTROSE       CLEAR     57  27  31 SE10      30.01S
CORTEZ         CLEAR     44  32  62 NE7       30.06R
PAGE, AZ       CLEAR     67  18  15 S5        29.93R
GRAND CANYON   PTCLDY    31  18  58 CALM      30.10S
KINGMAN        CLEAR     57  16  20 E12       29.88S
FLAGSTAFF      PTCLDY    35  21  56 CALM      30.13S

$$

REGIONAL REPORTS    NEVADA/IDAHO/WYOMING

CITY           SKY/WX    TMP DP  RH WIND       PRES   REMARKS
LAS VEGAS, NV  CLEAR     76  39  26 S16       29.72F
ELY            CLEAR     41  38  89 S10       30.01S
ELKO           PTCLDY    48  35  60 NE3       29.96F
POCATELLO, ID  CLEAR     46  45  96 CALM      30.00R
BURLEY         CLEAR     50  42  74 S3        29.98S
EVANSTON, WY   PTCLDY    49  36  61 N8        30.07S
ROCK SPRINGS   PTCLDY    49  36  61 S3        30.05F
KEMMERER       CLEAR     41  36  81 N10       30.10S

$$



USA.gov is the U.S. government's official web portal to all federal, state and local government web resources and services.